Theta_e
350 349 350 352 354 354 355 353 353 352 348 346 345 345 345 342 339 348 360 354 343 342 343 341 344 343 343 346 347 346 347 347 348 350 350 352 354 356 356 354 354 354 353 352 353 355 356 357 358 358 359 359 359 359 356 353 352 352 351 351 350 350 350 350 350 349 349 349 349 348 348 347 346 346
353 350 351 353 355 356 357 355 354 352 350 349 348 349 350 348 343 340 347 354 346 337 341 344 344 345 346 349 348 347 347 349 351 352 353 355 356 356 356 355 355 355 354 354 356 357 358 359 360 360 360 361 359 355 350 348 349 349 350 349 349 350 348 346 345 345 344 345 346 347 347 347 347 346
354 353 353 353 354 355 357 356 356 354 352 351 351 352 352 352 352 345 342 350 348 343 346 349 350 352 351 351 348 346 346 350 353 354 354 356 356 356 356 356 357 356 356 358 358 359 360 360 360 360 361 360 354 349 348 348 349 350 350 349 347 345 343 341 340 339 340 339 341 342 343 345 346 347
355 354 354 354 354 355 357 356 356 355 354 355 354 354 354 352 355 352 348 349 350 351 353 353 355 356 353 350 349 348 348 349 352 353 354 355 356 356 357 357 357 358 358 359 359 360 360 360 360 361 360 355 349 348 349 349 349 348 347 343 341 340 339 340 340 340 341 340 340 340 340 342 343 344
355 354 354 354 354 354 356 356 357 356 357 358 356 356 355 354 356 356 353 352 352 354 356 355 356 355 354 351 350 351 351 351 352 351 351 354 355 356 357 357 358 359 359 359 360 360 359 360 360 359 354 349 348 349 348 347 346 343 340 338 338 338 339 339 340 340 341 341 340 341 341 341 341 341
354 355 355 355 354 354 355 356 357 357 357 357 357 357 356 356 357 356 355 354 353 354 356 357 357 355 355 353 352 354 355 354 354 351 350 353 355 357 358 358 359 359 359 360 360 359 360 358 356 352 350 348 348 348 346 344 341 338 338 337 337 337 337 337 338 339 339 340 340 340 340 340 340 341
355 355 355 354 353 353 355 355 356 357 357 357 356 357 357 356 357 357 357 356 355 355 357 357 356 355 355 354 354 355 356 357 356 354 351 353 356 359 359 359 359 359 358 359 359 359 357 353 351 349 349 349 348 345 342 338 337 337 336 335 335 334 335 335 335 336 337 338 338 338 339 339 339 340
353 352 353 352 351 351 352 353 355 356 356 356 356 356 356 356 356 356 357 357 357 357 357 357 356 355 355 355 355 356 357 357 356 354 353 354 358 359 360 360 360 358 357 359 357 355 351 349 350 350 349 347 344 341 338 336 337 336 335 334 334 334 334 334 335 336 336 337 337 337 337 338 339 339
350 348 348 348 348 350 350 350 352 354 355 355 355 355 356 357 357 356 356 357 357 357 357 357 357 356 356 356 356 357 358 358 357 355 352 355 360 359 360 360 358 356 358 357 352 348 348 349 350 348 345 342 338 336 336 337 336 335 335 334 333 334 334 334 333 332 333 335 336 337 337 337 338 338
348 348 347 347 347 349 350 349 350 352 354 355 355 356 356 356 357 357 356 357 357 357 357 357 357 357 357 357 357 357 358 359 359 356 354 356 361 361 360 358 355 357 358 353 347 347 349 348 346 342 339 336 334 336 337 336 335 335 334 333 333 334 332 328 325 324 324 327 331 334 336 337 337 337
352 350 348 347 347 349 350 350 348 351 353 356 356 356 356 357 357 358 357 357 357 357 357 358 358 358 358 358 358 357 358 359 359 357 356 359 361 362 359 354 354 360 357 348 346 348 346 343 340 337 334 334 336 337 336 335 335 335 333 333 333 331 326 322 320 320 320 322 325 330 335 337 338 338
355 354 351 349 349 349 350 349 348 349 351 353 354 354 356 357 357 357 358 358 357 357 357 358 358 358 358 358 357 357 358 358 357 356 356 360 362 362 358 352 355 360 357 348 346 347 343 339 337 334 333 335 336 336 335 334 334 333 333 332 329 325 321 319 320 322 323 323 324 327 333 337 338 338
356 355 354 351 348 347 347 348 348 348 348 351 352 351 352 354 355 357 358 358 358 357 357 358 358 358 358 357 358 357 357 357 356 355 356 359 362 361 357 353 355 360 358 350 346 345 342 338 335 334 334 336 336 335 334 333 333 334 332 328 323 319 319 320 322 324 326 326 325 327 330 336 338 339
354 354 353 351 348 346 347 346 347 347 347 350 350 350 351 354 356 357 357 358 358 358 357 358 357 357 358 357 357 357 356 356 356 354 355 359 362 361 356 352 355 359 359 352 346 345 341 335 333 334 335 336 335 333 333 333 333 330 325 320 318 319 320 322 324 326 328 329 328 327 328 332 337 339
353 352 351 350 349 349 348 347 345 345 346 348 350 351 352 354 356 357 358 357 358 357 358 357 358 357 358 357 357 356 356 355 354 353 355 359 362 360 355 352 353 358 359 353 346 345 341 334 332 335 336 334 333 332 333 332 328 322 318 317 318 319 321 324 326 328 329 330 330 330 329 329 333 338
354 352 350 349 348 349 348 347 345 345 346 348 350 352 352 353 355 357 357 357 357 358 358 357 357 357 357 356 356 355 355 354 353 354 354 356 358 356 354 352 352 357 360 352 346 346 341 333 332 335 334 333 332 332 332 327 320 316 316 317 317 319 321 324 328 329 330 331 332 332 331 330 330 334
354 353 352 350 349 347 347 347 349 349 348 348 350 352 352 353 353 354 356 357 358 358 358 358 358 357 357 356 355 354 355 354 354 354 354 354 354 353 352 352 353 359 359 351 346 345 340 332 333 335 334 331 332 332 328 320 316 316 316 316 317 318 319 322 326 329 330 332 332 332 332 333 331 331
354 353 353 353 351 349 348 348 349 349 349 350 350 351 352 352 351 352 353 355 356 356 357 358 358 356 356 356 354 353 354 355 355 356 356 355 355 353 352 353 357 360 355 348 345 344 338 332 333 335 334 331 331 330 323 317 316 316 315 315 316 317 317 320 324 327 329 332 333 333 333 335 335 331
354 354 354 354 353 351 350 349 348 349 350 351 351 352 353 352 351 350 351 352 353 354 354 355 354 353 354 353 353 353 354 356 358 359 359 358 356 355 354 355 359 357 352 347 344 341 337 331 332 335 334 331 331 328 321 317 317 316 315 315 315 316 317 318 320 324 328 330 333 334 334 336 337 334
354 355 355 354 354 353 352 351 350 351 352 353 354 354 353 353 352 350 349 349 352 354 353 352 351 350 351 351 352 353 355 357 360 360 360 359 358 357 355 356 358 355 350 346 342 338 335 331 331 335 334 329 330 329 323 319 318 317 316 316 315 315 316 317 319 321 325 328 331 333 334 336 337 336
354 354 354 354 354 354 353 352 352 352 354 354 355 354 354 354 353 352 349 349 350 351 351 351 350 349 348 350 353 354 355 358 359 359 358 359 359 357 356 356 357 353 349 345 341 336 334 331 330 334 335 330 330 331 327 322 319 318 317 317 316 315 315 315 317 319 321 325 327 330 333 335 336 336
355 355 354 354 354 354 353 353 352 353 354 355 355 355 354 355 354 352 351 351 351 350 350 350 349 349 348 350 354 355 357 358 359 359 359 359 359 357 356 357 356 351 347 345 341 336 334 331 328 330 334 333 330 331 329 324 320 318 318 318 317 316 315 315 316 317 319 321 323 325 329 333 335 336
355 355 354 354 354 354 354 353 353 354 354 354 354 354 355 355 354 353 351 352 352 352 351 350 350 350 350 352 355 356 358 358 358 357 359 360 359 358 358 358 355 350 346 344 341 336 334 332 327 325 331 335 332 331 330 325 320 318 319 319 318 317 316 315 315 316 318 320 321 322 324 326 330 333
355 355 355 354 355 354 354 353 353 353 354 354 354 354 355 354 353 352 351 353 352 352 352 351 351 352 352 354 357 358 359 359 356 356 359 361 360 358 358 358 357 353 347 342 341 337 332 331 328 325 328 332 332 330 328 324 320 319 319 319 318 318 317 316 315 315 316 318 319 320 321 322 323 325
354 355 354 355 354 354 354 353 354 354 355 355 354 354 354 354 353 353 353 354 354 354 354 354 354 354 354 356 359 359 359 359 357 356 359 362 360 359 359 357 357 357 350 342 341 337 332 329 328 327 328 331 330 329 326 322 321 319 319 319 318 318 318 317 315 314 315 317 318 318 319 319 319 320
354 354 354 354 353 353 353 353 354 354 355 355 354 354 354 353 354 355 356 356 356 355 356 356 355 357 357 358 359 360 360 360 358 358 359 361 360 359 357 356 358 358 352 345 341 337 331 329 327 326 328 330 330 328 325 321 321 320 319 319 318 318 318 318 316 315 314 316 317 318 318 319 319 319
354 354 354 354 353 353 353 353 354 354 355 355 355 354 354 355 356 358 358 358 357 356 355 356 357 357 358 359 360 360 360 359 359 359 359 359 358 356 353 353 356 355 349 343 340 336 331 329 326 324 326 328 329 328 325 322 321 320 319 319 319 318 318 318 317 315 314 315 316 317 318 318 318 318
354 355 355 355 354 354 354 354 354 355 356 356 355 355 356 356 357 357 358 359 359 358 357 357 358 359 359 360 360 360 360 360 360 360 360 358 356 353 353 354 353 348 343 339 337 335 331 328 325 324 325 325 325 325 324 322 321 320 320 320 319 319 318 318 317 316 314 314 315 317 318 317 317 317
355 355 356 355 356 356 356 356 356 356 357 357 356 356 356 355 355 354 354 355 357 358 358 358 359 359 359 360 360 361 361 361 360 359 359 357 354 352 352 351 347 342 338 337 336 335 332 329 326 324 325 324 323 323 322 322 321 320 319 319 319 319 319 318 318 317 316 314 314 315 317 317 317 316
357 356 356 357 357 357 357 357 357 358 358 357 357 357 356 355 354 354 353 354 354 355 356 357 357 358 358 360 360 360 360 360 359 358 358 355 352 350 348 345 341 339 337 336 336 334 331 329 326 325 324 323 323 323 322 322 321 320 320 319 319 319 319 318 318 318 317 315 314 314 315 316 316 316
357 356 357 357 357 357 358 358 358 358 358 358 358 357 356 356 356 356 356 357 356 356 356 357 357 357 358 359 359 359 359 359 359 358 356 352 349 346 343 341 339 337 336 337 336 334 331 330 328 326 325 324 323 323 322 322 322 321 320 320 319 319 318 318 317 318 317 316 315 314 314 314 314 315
357 357 356 357 357 357 357 358 357 358 358 358 358 358 357 358 357 358 358 358 358 358 358 358 357 357 358 358 359 359 358 357 356 356 353 349 345 342 340 339 337 336 336 337 335 332 331 330 329 328 325 324 324 323 322 322 322 322 321 321 320 319 318 318 318 317 317 318 316 315 314 314 314 314
356 354 353 354 356 356 356 357 357 358 358 358 358 358 358 358 358 359 360 360 360 361 361 359 358 358 358 356 354 352 348 348 351 354 351 346 342 340 339 338 336 336 336 335 334 332 331 329 328 328 325 324 324 324 323 323 322 322 322 321 320 320 319 318 318 318 317 318 317 316 314 314 313 313
353 351 351 352 353 354 355 356 356 356 357 357 357 358 359 359 359 360 361 361 361 361 361 360 359 357 352 347 345 345 343 344 349 352 348 343 340 339 338 336 335 334 334 333 334 332 330 328 328 327 325 324 324 324 324 323 324 323 323 322 322 321 319 318 318 318 317 317 317 317 315 314 314 313
349 349 350 351 352 353 354 355 355 356 356 356 357 358 359 359 360 360 360 360 360 359 359 359 358 355 348 342 342 344 345 346 348 347 343 340 337 336 335 335 334 333 332 333 333 332 330 328 327 327 326 325 324 324 324 324 324 324 324 323 323 322 320 319 318 317 318 317 317 317 316 315 314 314
349 349 349 350 351 352 353 354 355 355 356 356 356 358 358 358 359 359 359 360 359 359 358 357 356 354 351 346 344 344 345 347 346 343 340 338 335 333 333 334 334 332 331 332 332 332 331 330 329 328 326 325 325 326 325 324 324 324 324 323 323 323 322 319 318 318 317 317 316 316 316 315 314 314
348 349 349 350 351 352 353 353 354 355 356 356 356 357 357 356 357 357 358 358 357 357 357 356 354 353 353 350 346 344 345 346 344 341 339 337 333 332 334 336 334 332 330 331 331 332 332 331 330 329 326 326 329 332 328 323 324 324 323 324 324 323 323 320 318 318 317 317 316 316 316 315 314 314
350 349 349 350 351 352 353 354 354 354 355 356 356 356 357 357 356 357 358 357 357 357 356 355 353 352 352 350 348 345 345 344 343 341 339 336 333 333 334 335 334 332 331 330 330 331 331 330 330 330 327 327 330 332 328 324 324 324 324 324 324 323 323 321 319 318 318 317 316 316 316 316 315 314
350 350 350 350 351 352 353 353 354 355 355 355 355 356 356 356 356 357 356 356 357 357 355 354 353 352 350 350 348 346 344 342 341 339 337 334 333 333 333 334 334 333 330 330 329 329 329 328 328 330 329 328 328 328 326 325 325 325 324 324 324 324 323 322 320 319 318 317 316 316 316 316 316 314
350 350 351 351 351 352 353 353 354 354 353 354 355 354 354 353 354 354 354 355 355 356 356 355 353 351 351 350 347 344 342 340 339 338 337 335 334 333 333 334 334 333 330 330 328 327 327 327 327 328 329 329 328 327 325 325 325 326 325 324 325 324 324 323 322 320 318 317 316 316 315 316 316 314
350 349 350 351 351 351 351 352 353 353 352 353 353 351 352 353 352 351 352 354 355 355 355 354 352 351 350 347 343 340 340 338 338 338 338 336 336 335 334 334 335 333 331 329 328 326 327 328 327 327 328 328 328 327 326 325 325 325 325 324 324 323 323 323 323 322 320 318 316 316 315 316 316 316
349 348 349 350 349 348 350 353 353 351 350 351 350 348 349 352 351 349 350 353 354 354 352 351 350 348 346 342 339 338 338 338 337 337 336 336 336 336 335 335 334 333 332 331 329 327 327 327 327 327 327 327 326 327 326 325 325 325 324 323 322 322 322 322 322 322 321 319 317 316 316 315 315 315
347 347 350 350 347 347 351 353 350 347 347 349 348 346 347 349 350 349 350 352 352 351 350 349 348 345 342 341 340 339 338 339 338 336 334 334 334 335 335 334 334 333 332 331 329 327 327 326 326 326 325 325 325 326 326 326 325 324 322 321 320 320 321 321 322 321 321 320 319 317 316 315 315 315
348 349 350 350 347 347 350 350 347 345 346 347 347 347 348 350 351 351 350 350 350 349 347 346 344 342 341 341 340 338 336 335 335 334 332 332 332 333 333 333 332 331 330 329 328 327 326 325 324 324 324 324 323 324 323 323 322 320 319 319 319 319 319 320 320 320 320 320 319 318 316 315 314 314
349 349 349 347 346 346 348 347 347 347 347 346 346 348 350 350 350 349 347 346 345 345 345 344 342 340 339 337 335 333 332 332 331 331 331 330 331 331 331 330 330 329 328 327 326 325 323 322 322 322 321 320 320 319 319 319 317 317 317 318 318 318 318 318 319 319 320 320 319 318 317 315 314 314
Wind_Speed
13 13 12 10 9 8 7 7 6 7 6 2 1 3 3 1 1 1 3 4 2 2 4 3 3 6 9 9 10 11 12 12 13 13 13 14 15 15 16 17 17 17 16 15 15 16 17 18 19 19 20 19 18 17 17 17 16 16 16 17 17 18 18 18 18 17 17 16 16 16 18 20 22 24
13 13 13 12 11 10 8 7 7 7 6 3 2 3 3 3 2 2 2 3 3 2 4 5 6 8 9 10 11 12 13 13 13 13 13 14 15 16 16 16 15 14 14 14 15 16 18 19 19 19 18 16 16 17 17 17 16 16 17 18 19 19 19 19 19 19 18 17 16 15 14 14 16 18
12 14 14 14 13 11 10 9 9 9 7 6 6 5 4 4 4 3 2 1 3 4 5 8 9 10 11 12 13 14 14 14 13 13 13 14 15 15 15 14 13 13 13 14 15 17 18 19 18 17 15 16 17 17 16 16 17 17 18 19 20 20 21 21 21 20 19 18 17 16 15 13 13 13
13 14 15 16 15 14 12 10 9 9 8 7 7 7 6 5 5 5 4 4 6 9 10 11 11 12 13 14 15 16 16 14 14 13 13 14 14 14 13 13 12 12 14 15 17 18 18 17 16 15 16 16 16 15 16 16 17 18 18 19 20 20 20 20 19 19 18 18 17 17 17 15 14 13
16 16 16 17 17 16 15 13 10 9 8 7 7 7 8 8 7 8 7 8 10 13 13 13 14 14 15 16 16 17 17 17 16 15 14 14 14 14 14 13 13 13 15 16 17 17 16 15 15 16 16 15 14 14 16 17 18 19 19 19 19 17 17 17 17 18 18 17 17 16 16 16 15 14
19 19 18 18 17 17 18 16 12 10 10 10 9 9 9 10 9 10 11 11 11 14 17 16 16 16 16 17 17 17 18 18 18 17 16 14 13 14 14 14 14 14 15 16 16 15 14 15 16 15 13 12 13 15 16 17 18 19 18 18 17 16 16 16 16 16 17 17 16 15 15 15 14 14
22 21 21 20 19 18 19 19 17 14 13 13 13 12 12 12 12 11 13 13 13 15 18 18 17 17 17 18 17 17 18 18 18 18 18 16 14 14 14 14 13 13 15 15 14 14 15 15 13 11 10 11 13 14 16 17 18 18 17 17 17 18 18 17 16 16 16 16 16 16 15 14 13 13
26 24 24 23 21 19 19 20 19 17 16 16 16 16 15 15 15 13 13 14 14 16 18 19 19 18 18 19 18 18 18 18 18 18 18 16 14 13 13 12 13 14 15 14 14 14 14 12 10 9 10 11 12 14 16 17 16 16 17 18 19 20 19 18 17 17 16 17 17 17 17 16 14 13
27 26 26 25 23 21 20 21 21 19 18 18 18 18 18 17 17 16 15 15 15 16 17 19 19 18 18 19 19 18 18 18 19 19 18 15 13 12 11 11 12 14 14 14 14 13 11 9 8 9 9 11 13 14 14 14 14 15 17 19 20 20 20 20 20 19 18 17 17 17 17 17 16 14
27 26 27 26 25 23 22 22 22 21 20 19 19 19 19 18 18 17 17 17 16 17 17 18 19 19 19 20 20 19 17 18 19 19 18 14 11 9 10 13 14 13 13 15 14 11 9 8 8 9 11 12 13 12 12 13 13 15 18 20 21 21 22 24 25 24 22 19 17 16 17 16 16 15
28 28 27 26 25 24 23 23 22 22 22 22 22 21 20 19 18 18 18 18 18 18 18 18 19 19 19 19 20 20 18 18 18 18 17 14 10 7 11 17 15 12 14 15 12 9 8 8 9 11 12 11 11 11 12 13 14 16 19 20 21 23 25 27 28 26 24 20 17 15 14 15 14 14
30 29 29 28 27 26 24 23 23 23 23 23 24 24 22 21 20 19 20 20 20 20 19 18 19 19 19 19 20 20 19 18 17 16 16 15 11 9 13 17 14 11 15 15 11 8 7 8 11 12 10 9 10 11 12 13 15 17 19 21 22 24 26 28 28 26 23 20 17 14 13 13 13 12
31 31 31 30 29 28 27 26 24 24 23 23 24 24 23 22 21 20 20 20 21 20 19 20 20 19 20 20 20 19 18 17 16 16 15 15 13 12 16 17 10 9 14 14 10 7 8 10 12 10 9 9 10 11 13 14 16 18 20 21 23 25 26 26 26 24 23 20 18 15 13 12 11 11
32 32 32 32 31 30 29 28 27 26 25 24 23 23 23 22 22 22 22 21 21 20 19 21 20 19 20 21 19 18 18 18 17 16 15 14 14 14 17 16 10 8 13 13 8 5 8 11 10 7 8 10 11 12 14 15 17 19 21 23 24 24 25 25 24 23 22 21 20 18 15 12 10 10
33 33 33 32 32 32 31 31 30 28 27 25 24 23 23 23 23 24 24 23 23 21 20 22 21 19 21 23 20 18 19 18 16 15 13 14 15 14 14 13 11 10 13 13 7 4 7 10 7 6 8 9 10 12 14 15 18 20 22 23 23 24 24 24 23 21 21 22 21 21 18 14 11 9
33 33 33 32 32 32 32 32 31 30 29 27 26 24 23 23 24 25 26 26 26 24 23 23 24 22 23 23 22 20 19 18 16 15 13 13 16 16 14 13 13 12 13 13 7 3 5 7 5 5 8 9 10 11 13 16 19 20 21 22 22 24 25 24 22 20 21 22 22 22 22 18 13 9
33 33 33 33 32 32 32 31 31 30 29 28 27 26 24 23 24 25 26 26 28 28 27 26 27 27 25 25 25 23 21 19 18 16 15 15 16 17 16 16 14 12 12 10 5 2 4 6 4 5 8 8 8 10 13 17 19 20 21 22 22 23 25 24 21 19 19 21 22 23 23 22 18 11
33 34 34 34 34 33 32 32 31 30 29 29 28 27 26 25 24 24 25 26 27 28 30 30 32 32 30 29 29 26 23 22 20 18 16 16 15 16 17 15 12 11 10 7 3 2 2 4 3 4 6 6 6 9 13 16 19 21 22 23 22 23 24 23 21 18 18 19 21 22 22 23 21 14
35 35 35 35 35 35 34 33 32 31 30 29 28 28 27 27 26 25 25 25 26 27 29 29 30 31 31 30 30 28 26 23 21 19 17 15 15 15 16 15 12 10 8 5 2 3 2 2 2 4 3 4 5 8 12 15 18 21 22 23 23 23 23 23 21 18 17 17 18 21 21 21 19 14
36 36 35 35 36 36 36 35 33 32 30 29 28 29 28 28 28 28 27 26 27 28 27 25 24 24 24 25 26 25 23 20 20 19 17 15 15 14 14 16 14 9 7 5 3 4 3 1 2 5 3 2 4 6 10 14 17 19 21 23 24 24 23 23 22 19 17 17 17 18 19 18 16 13
37 37 37 37 36 36 37 36 35 33 30 29 29 29 30 30 30 30 29 28 28 29 28 26 25 23 22 22 21 20 19 19 20 20 18 18 17 14 13 14 12 8 7 6 3 5 4 1 1 6 6 0 4 5 8 12 14 16 20 23 24 25 24 23 23 21 19 17 17 17 16 15 14 13
37 38 38 37 37 37 38 38 36 34 31 30 30 30 30 30 31 33 32 31 30 30 29 28 27 25 23 21 20 19 19 19 20 22 22 21 18 15 15 14 10 7 8 8 6 5 5 2 1 4 7 4 3 5 6 10 12 14 19 22 23 25 25 24 24 23 21 19 18 17 16 14 12 12
37 37 38 37 37 38 39 39 38 35 33 31 31 31 30 30 32 34 33 31 31 29 28 27 26 24 23 21 20 20 19 19 20 23 24 22 19 17 17 15 10 6 7 10 9 7 6 4 2 2 4 4 3 4 6 8 9 12 17 21 22 24 25 26 25 24 22 20 19 18 17 15 13 12
36 36 37 38 38 39 40 40 39 37 34 33 32 32 31 32 34 35 33 31 30 28 27 27 26 25 24 22 21 20 20 19 19 20 22 21 20 19 19 17 14 10 8 9 9 9 8 6 4 3 3 2 2 3 5 6 7 9 14 19 21 22 25 26 26 25 24 22 19 18 18 18 17 15
36 36 37 38 39 39 40 40 39 38 36 35 34 33 33 34 35 34 32 31 30 28 28 28 27 26 24 23 22 21 21 19 18 18 20 19 18 18 18 18 18 17 14 12 11 11 10 8 6 5 5 3 2 3 4 4 7 8 10 15 19 21 23 26 27 25 25 23 21 20 19 19 19 19
36 37 37 38 38 38 38 37 37 36 35 35 35 35 35 35 34 34 34 33 31 29 28 28 27 26 25 24 23 22 21 19 18 18 18 18 17 16 16 17 19 19 17 14 13 12 10 8 6 6 6 6 4 2 3 3 6 8 7 9 16 19 21 24 25 24 24 24 23 22 20 20 21 21
38 38 38 38 37 36 35 34 33 33 33 34 34 35 35 34 32 31 31 31 31 30 29 27 27 26 26 25 24 23 22 20 19 18 18 18 17 15 14 16 17 16 14 13 14 12 9 7 6 6 6 6 6 4 3 2 4 8 7 7 11 17 20 21 22 23 22 23 24 23 22 22 22 22
40 39 39 38 37 35 34 33 32 32 32 32 32 33 34 33 31 29 29 30 30 29 28 27 27 27 26 25 25 24 23 21 20 20 19 18 16 14 15 16 15 13 11 12 14 13 9 6 6 7 6 5 6 5 4 2 2 7 9 7 8 13 18 20 21 21 22 23 24 24 24 25 25 25
42 40 40 39 38 36 35 34 33 33 33 32 32 31 31 31 30 30 30 31 30 28 28 29 29 29 28 27 26 24 22 20 19 19 18 17 16 16 15 14 13 12 12 13 14 13 9 7 7 8 7 6 6 5 4 2 1 4 7 9 8 9 14 18 19 20 22 22 24 25 25 26 27 27
43 42 41 40 38 37 35 34 34 34 33 32 31 29 28 27 27 28 29 30 30 30 29 30 30 30 30 28 25 22 20 19 18 17 17 17 17 17 16 15 14 13 13 13 14 13 10 7 7 7 7 7 6 5 4 2 1 3 5 8 8 7 10 14 16 18 20 20 22 24 25 25 25 26
45 42 41 39 37 35 33 32 32 32 31 30 28 27 26 26 26 26 27 29 30 30 29 29 30 29 28 25 22 22 21 20 18 17 16 18 19 19 18 16 15 14 14 14 15 13 10 8 8 7 6 7 7 6 5 4 3 3 4 6 7 7 9 12 14 16 17 18 20 22 24 25 25 26
46 42 38 35 34 32 30 30 30 30 29 29 28 27 26 26 26 27 28 29 29 29 29 29 28 27 26 24 23 21 19 18 17 16 16 19 21 21 19 18 17 16 17 18 18 16 13 10 9 8 6 6 6 7 7 6 5 5 6 6 7 8 9 11 13 14 16 17 18 20 22 24 25 25
43 39 34 32 31 30 30 30 31 31 31 30 30 29 28 28 28 29 29 30 28 28 29 29 30 29 25 19 15 14 14 16 17 16 18 21 22 22 21 20 20 21 22 22 22 19 16 14 11 9 8 7 7 7 7 7 7 7 8 8 9 9 8 9 11 13 15 16 17 18 19 21 23 24
36 33 32 31 31 30 30 31 32 32 32 32 31 30 30 30 30 30 31 30 27 26 26 28 31 28 19 11 12 16 17 19 21 20 21 23 23 23 22 20 21 23 24 24 24 22 19 16 14 12 10 9 9 10 11 10 10 10 10 11 12 12 10 8 9 10 12 14 15 16 17 19 21 22
33 31 30 30 31 31 32 33 33 32 32 32 32 31 31 32 32 31 30 28 26 25 25 27 28 24 18 18 23 24 21 21 23 21 22 23 22 21 22 22 22 24 24 23 24 24 21 19 17 14 12 10 10 10 12 13 14 14 14 14 15 14 12 9 8 8 9 10 11 13 15 17 19 21
33 33 31 30 30 31 32 33 33 33 32 33 33 32 31 31 32 32 30 28 26 26 26 26 25 22 22 24 26 23 21 22 22 22 23 23 21 21 22 23 24 25 23 22 23 23 22 21 19 16 13 9 6 6 9 11 13 15 17 17 17 15 13 11 10 9 8 8 8 10 12 14 16 19
33 33 32 30 30 31 33 35 34 33 34 35 34 32 31 30 30 30 28 27 26 26 25 25 24 23 23 23 22 20 22 23 22 23 24 23 21 21 22 22 23 24 23 21 21 21 20 20 20 19 14 8 3 4 9 12 13 14 16 18 18 16 14 13 13 12 10 8 7 7 8 10 12 15
34 32 31 31 32 33 35 36 34 33 35 36 33 30 30 30 28 26 24 23 25 25 24 23 22 22 22 21 20 20 22 23 22 24 25 24 23 23 22 22 23 24 22 20 19 18 17 17 18 20 17 11 5 5 9 12 12 12 13 15 17 17 16 16 17 14 12 10 8 7 7 7 9 11
35 33 33 33 34 35 37 37 35 34 35 35 33 31 30 29 26 24 24 25 26 25 23 22 21 21 20 20 21 22 24 25 25 26 28 27 26 24 23 22 24 24 22 19 17 16 16 16 17 19 20 18 13 11 12 12 13 14 13 13 15 16 17 18 18 16 14 13 11 8 7 7 7 7
37 36 35 35 37 38 36 33 32 32 32 34 35 32 28 25 24 24 25 27 27 26 24 22 22 22 21 22 24 26 27 28 28 28 29 27 24 23 23 23 23 23 22 18 16 16 17 17 16 15 16 17 17 17 16 15 16 17 15 14 14 15 17 18 19 18 16 14 12 10 9 8 6 5
38 36 36 38 36 31 27 27 31 34 33 34 34 31 28 29 29 27 27 29 28 26 24 24 23 24 25 26 27 28 27 27 27 26 25 24 22 23 24 24 22 22 21 19 18 17 17 15 13 11 12 14 16 16 14 13 14 16 15 13 12 13 14 16 19 20 19 16 14 12 11 10 8 7
36 34 36 38 31 25 26 33 39 38 35 32 29 28 29 31 29 26 25 27 26 24 24 24 24 24 25 25 26 25 24 24 23 22 23 23 24 24 24 23 22 22 22 22 19 16 14 13 12 11 11 13 14 13 12 13 14 15 13 11 10 10 11 14 18 20 21 20 18 15 12 9 8 6
31 33 36 34 27 26 32 39 39 37 35 31 28 30 32 29 25 24 25 25 24 24 24 24 23 23 23 23 23 23 22 21 20 20 22 23 25 25 24 23 22 22 22 22 18 14 12 12 11 11 11 10 10 11 12 13 14 13 12 11 11 10 11 13 16 18 20 21 21 19 15 12 9 7
30 32 34 30 25 26 32 36 34 33 33 30 28 30 30 27 24 24 24 23 23 24 23 22 22 22 21 21 20 20 19 18 18 19 19 20 22 23 22 22 21 19 19 19 16 13 12 11 10 9 8 7 7 9 10 11 12 11 11 11 11 11 12 13 14 16 18 20 21 20 19 16 14 12
28 28 27 25 22 23 27 30 30 30 29 26 24 25 24 22 21 21 20 20 21 22 21 21 21 20 19 18 18 18 18 17 17 17 18 18 19 19 19 20 20 19 18 16 15 13 11 9 8 8 8 7 7 8 9 10 10 11 11 11 11 10 10 11 12 14 16 17 18 19 20 19 17 15
Wind_Direction
244 242 246 256 267 279 291 290 292 315 330 350 357 287 298 300 249 315 333 310 318 359 343 329 334 358 1 352 348 345 339 337 336 333 331 332 334 334 334 335 336 338 342 348 351 352 352 351 349 346 343 342 344 347 350 351 352 352 352 352 351 350 349 348 347 343 337 329 322 313 304 298 291 284
246 243 244 252 262 274 288 290 286 288 290 292 303 290 302 316 282 226 243 292 309 332 340 335 331 342 350 347 347 348 347 346 346 343 340 340 340 338 339 340 341 346 353 356 354 350 349 348 346 344 344 347 352 353 353 354 356 357 358 357 355 353 352 350 347 344 340 335 331 325 317 307 297 287
246 245 244 248 255 265 278 285 283 276 263 257 268 273 279 301 303 273 218 230 302 310 317 323 330 336 337 341 347 348 349 351 349 346 344 344 343 341 341 340 342 350 353 350 347 346 346 346 346 347 351 355 355 354 355 358 0 360 357 354 352 351 348 346 343 339 335 330 324 322 319 313 305 294
246 247 249 249 251 257 267 275 278 271 259 255 260 266 271 275 287 286 249 231 276 300 310 316 326 332 331 336 344 345 346 349 349 348 348 347 345 342 338 338 342 348 349 346 344 343 344 347 350 353 355 355 354 356 360 1 359 356 354 352 351 350 349 347 346 344 341 337 330 323 320 317 311 302
246 248 251 251 251 253 258 265 271 266 261 260 257 257 260 263 272 278 267 258 278 298 307 312 319 325 327 331 338 342 342 345 347 348 349 349 344 338 333 332 334 339 343 343 341 341 346 350 352 352 351 352 355 360 0 358 357 355 353 353 353 352 351 349 347 345 344 343 340 335 331 327 320 312
247 249 251 252 252 253 254 256 260 262 261 261 261 260 259 264 271 273 271 267 273 289 300 307 313 318 323 326 331 337 338 340 343 344 347 345 336 332 329 324 324 332 340 340 341 345 350 349 347 349 352 356 360 1 359 357 356 355 354 355 356 356 353 348 343 340 338 338 339 339 338 337 334 328
247 248 250 253 254 255 255 253 254 258 261 262 265 266 266 271 276 274 273 269 268 280 293 301 307 313 318 320 325 332 333 334 337 338 341 340 331 326 324 321 324 335 342 345 349 353 351 349 353 360 4 5 3 359 356 355 356 356 359 1 359 358 356 351 346 340 336 334 335 337 339 339 340 338
249 249 250 253 255 257 257 256 255 256 260 262 265 268 270 273 275 275 273 272 272 275 282 293 302 309 312 315 320 325 326 328 331 334 336 337 331 324 322 325 333 342 348 353 356 356 354 359 11 16 12 9 3 356 355 358 359 360 2 2 1 359 357 353 350 346 340 335 333 334 335 337 339 338
250 250 251 254 256 257 259 259 256 255 258 262 266 269 270 271 273 276 275 275 276 273 275 286 297 303 307 310 315 319 321 322 326 331 334 336 333 327 325 331 342 348 352 358 359 360 7 20 26 24 17 7 359 357 1 4 1 360 1 1 359 356 353 350 348 346 341 336 331 330 330 331 334 336
250 251 252 254 256 257 259 259 257 256 257 261 265 267 269 271 274 275 275 276 277 276 277 284 291 297 302 305 309 313 316 317 321 327 332 336 337 331 327 334 347 357 358 1 4 8 21 36 33 22 11 3 2 5 7 5 1 0 0 358 356 352 349 346 343 341 339 335 329 327 327 327 329 331
252 253 253 255 255 255 257 259 259 260 260 261 264 266 269 272 273 273 274 276 277 277 280 283 286 292 297 299 302 308 312 315 320 325 327 329 331 327 326 334 346 359 360 3 12 19 34 43 26 11 6 7 13 13 8 3 2 0 357 354 351 347 345 343 342 341 340 337 332 329 329 328 329 331
253 254 255 256 256 256 257 260 262 263 264 266 267 269 271 273 273 273 274 277 277 277 279 282 285 288 290 292 297 304 309 314 321 327 322 315 313 315 323 332 342 352 356 3 11 16 30 29 11 7 12 21 23 15 7 4 1 358 354 350 348 346 346 345 343 343 343 340 336 334 333 333 332 334
255 255 257 258 258 259 259 261 263 266 268 269 270 272 274 274 275 274 275 275 275 275 276 279 281 283 284 289 294 300 309 314 318 322 315 302 298 304 316 326 337 345 350 358 4 10 21 15 6 11 26 29 22 11 5 5 0 356 351 349 350 351 350 348 346 347 349 347 341 336 333 334 336 337
256 257 258 259 260 260 261 262 265 266 268 269 271 273 274 274 275 275 275 275 274 274 274 276 278 279 281 287 292 297 307 313 314 315 309 295 291 301 313 321 328 334 342 351 1 13 19 13 11 28 40 32 20 11 9 6 360 356 354 354 356 356 354 353 352 353 354 354 351 344 335 328 332 340
256 258 259 261 261 261 261 262 264 265 267 268 269 272 272 273 274 274 273 275 276 274 272 274 276 275 278 286 293 297 303 308 309 309 302 289 289 299 310 314 316 324 334 342 351 10 14 13 20 47 49 35 20 15 10 5 1 0 0 360 0 1 1 0 0 359 358 359 359 357 350 334 324 332
253 256 259 261 263 263 262 262 263 265 267 269 269 271 272 272 273 273 273 274 275 273 272 274 275 274 277 285 291 294 299 304 306 305 295 284 286 291 294 295 301 314 323 328 333 350 7 15 36 65 54 35 20 17 12 8 9 8 6 6 6 7 7 5 4 1 0 2 4 6 4 354 336 323
251 253 256 259 261 263 264 263 263 264 266 269 271 272 272 272 272 272 272 273 274 273 270 269 272 275 276 280 286 291 295 298 300 298 292 288 287 286 287 290 294 303 310 313 317 316 354 17 54 79 56 33 14 16 18 17 17 15 13 14 14 12 10 8 6 2 0 3 7 8 8 5 356 339
250 251 253 255 259 262 264 264 264 263 265 268 270 272 272 272 272 272 273 274 275 275 271 267 269 275 276 277 284 289 290 292 296 294 291 292 289 285 288 288 288 293 292 292 293 268 321 13 67 98 62 28 11 22 28 26 21 20 21 22 21 17 13 10 7 4 1 3 7 8 9 8 5 359
250 252 252 254 258 261 264 265 265 265 266 267 269 271 272 274 275 274 273 273 277 280 280 275 274 277 278 279 283 286 287 289 292 292 291 291 286 284 285 281 281 284 274 261 257 229 254 356 90 130 83 21 12 29 33 29 24 24 26 27 27 24 18 13 10 7 4 5 7 9 10 12 13 18
249 251 252 253 256 260 263 265 266 266 266 266 266 268 270 273 275 275 273 272 275 280 283 283 283 284 284 283 283 283 281 280 284 287 287 284 280 277 276 277 281 279 254 236 222 206 221 330 145 161 148 12 10 28 32 28 25 27 30 32 31 29 24 18 14 10 7 7 9 11 12 16 23 33
247 249 250 252 254 257 261 264 266 265 264 262 263 265 267 270 272 274 274 273 273 276 279 282 284 285 284 281 278 274 270 269 276 279 276 275 274 263 258 269 279 267 234 221 215 210 213 242 167 180 183 288 359 12 23 23 25 31 35 34 33 33 31 26 20 16 12 8 10 13 14 15 20 29
244 247 249 251 252 255 259 263 265 264 262 260 260 261 263 265 267 271 273 273 273 275 277 278 280 279 278 275 271 268 265 265 269 271 271 273 270 252 245 255 263 256 235 226 221 213 206 203 179 189 194 216 319 341 0 14 23 36 39 36 33 33 34 33 28 23 18 13 12 14 16 13 9 11
243 245 247 249 250 253 258 261 263 262 260 259 260 261 260 259 263 268 272 273 274 276 276 278 279 279 279 277 273 269 265 262 267 272 273 270 261 250 248 248 245 248 238 223 217 212 204 196 179 185 201 217 258 302 335 3 20 36 39 37 34 33 34 35 34 31 26 21 16 14 16 15 8 1
242 243 246 247 249 252 256 259 261 261 260 260 261 261 257 256 262 269 272 272 274 276 278 279 280 280 280 276 270 265 261 261 268 274 274 269 257 247 248 247 244 246 236 218 216 216 204 189 179 185 199 208 240 292 327 359 19 31 37 35 32 31 32 34 35 34 33 29 23 17 15 14 13 9
240 242 244 247 250 253 255 258 260 260 259 259 260 259 257 259 265 270 271 272 274 275 276 277 277 276 274 269 263 259 257 260 266 269 268 266 255 246 248 250 249 248 239 226 224 220 202 184 178 183 185 190 227 298 323 0 23 28 31 30 28 27 29 31 33 34 34 32 29 24 18 16 16 16
238 241 244 248 252 255 256 259 260 260 260 258 256 258 260 262 265 267 268 270 271 270 270 270 269 268 265 261 259 256 256 258 262 261 259 257 253 250 253 257 254 251 243 230 223 219 205 186 178 180 183 188 202 263 297 342 27 34 32 29 27 26 26 28 30 32 32 31 30 29 26 24 23 22
239 241 244 248 253 256 258 260 261 261 260 257 255 257 259 260 261 263 265 267 266 266 265 264 262 260 258 257 255 254 256 259 258 254 251 249 247 246 255 261 256 251 245 231 217 210 203 189 173 172 179 180 184 208 253 291 25 32 31 29 27 26 25 25 26 29 31 30 29 30 30 30 29 27
239 241 244 248 253 256 257 259 261 262 261 258 257 257 258 258 258 259 261 262 261 260 259 257 256 256 254 253 253 255 258 259 255 249 245 244 245 250 258 256 240 227 226 222 209 199 198 192 168 162 170 173 176 190 211 229 4 18 20 21 24 25 25 24 23 25 29 30 28 28 28 28 28 26
240 241 244 248 252 254 255 256 258 258 259 259 258 258 257 257 257 257 257 257 255 253 252 252 253 255 256 256 256 256 256 253 250 248 247 246 248 249 245 230 214 213 219 214 202 193 195 195 173 163 170 176 175 180 186 193 334 1 4 4 10 19 22 22 21 22 27 29 28 28 27 26 25 24
240 242 244 247 249 250 251 252 253 255 258 259 259 258 256 254 253 252 253 252 250 249 249 250 252 256 259 258 255 251 248 248 248 250 251 248 242 233 220 204 201 210 211 205 201 197 194 193 183 174 176 182 187 192 196 206 324 350 347 350 357 6 12 16 20 23 25 28 28 28 28 27 26 25
239 240 242 244 246 248 249 251 252 255 257 257 256 254 251 249 249 249 250 252 252 251 251 252 254 257 257 253 249 246 244 246 251 254 250 240 229 219 209 200 200 205 202 199 200 199 197 199 199 194 193 195 198 205 213 227 274 313 319 334 345 347 353 4 15 21 24 27 29 28 26 26 26 25
237 238 239 241 242 244 245 246 248 249 249 249 250 249 247 247 247 249 251 251 252 253 254 254 254 253 250 246 243 241 241 246 251 247 236 227 219 210 202 197 196 197 196 195 196 198 201 206 208 209 216 223 218 214 221 231 255 281 293 308 323 330 339 352 3 11 18 25 30 29 26 25 24 23
235 234 235 237 238 238 239 241 242 242 242 244 244 243 243 244 244 245 247 247 249 252 252 251 249 247 243 240 239 243 256 264 259 240 222 216 212 203 198 197 197 195 193 193 196 200 202 204 206 209 216 228 234 234 239 247 254 263 274 288 300 309 321 338 350 0 9 15 22 27 27 26 24 22
230 229 229 231 232 233 234 235 237 237 238 239 239 239 239 240 240 241 242 242 245 249 249 248 248 244 235 233 247 255 261 261 251 232 215 210 205 198 195 198 199 197 196 196 198 201 203 203 206 211 216 225 238 244 251 258 262 264 269 274 280 287 299 314 331 348 359 5 9 16 22 26 27 25
225 224 225 227 228 229 231 233 234 235 236 236 236 235 236 235 235 234 235 238 242 246 247 248 247 238 227 234 245 247 247 243 235 221 207 202 199 197 200 203 200 196 197 200 201 203 206 206 207 211 217 227 244 257 259 261 263 266 267 266 268 274 281 292 306 323 342 355 360 4 12 20 24 25
223 223 223 225 226 227 229 232 234 234 234 235 234 231 230 230 230 230 234 240 245 247 248 248 243 233 228 233 237 238 238 234 221 206 197 196 197 201 205 205 199 194 197 205 206 205 207 211 213 214 216 222 247 268 267 264 261 260 262 263 266 269 272 277 285 296 312 332 347 355 4 13 18 21
223 224 223 224 225 226 229 232 233 232 233 234 232 229 228 230 233 236 240 244 246 247 249 247 242 235 230 229 229 230 229 222 209 197 194 195 200 203 203 201 197 196 200 207 208 207 209 214 217 217 216 215 223 253 266 273 270 262 260 262 266 270 269 268 270 277 289 304 323 339 351 3 14 19
223 223 222 223 225 226 230 232 231 230 233 233 230 228 230 234 238 241 245 248 248 248 248 244 239 233 226 222 221 219 214 207 201 196 194 196 199 200 199 199 200 200 202 205 207 208 210 216 221 222 218 212 207 233 257 269 275 274 268 266 269 272 269 263 264 270 279 286 297 316 332 344 3 16
222 223 223 223 224 226 230 232 231 230 232 232 229 228 229 233 237 242 248 252 251 248 245 241 234 226 220 218 217 211 201 196 195 194 194 196 198 197 199 203 203 202 204 206 207 208 212 219 228 229 224 222 228 242 253 265 277 280 276 273 274 274 269 265 264 268 274 279 282 291 310 324 341 3
222 223 224 224 226 228 228 229 231 230 230 231 231 229 227 229 235 244 251 251 247 242 241 238 230 222 217 214 210 202 196 194 195 194 194 196 198 200 204 206 204 203 207 208 207 209 216 223 232 238 238 237 244 255 266 275 279 275 273 276 280 277 273 270 268 267 270 275 276 280 293 306 317 337
221 222 224 226 227 223 218 223 230 233 234 235 232 227 224 226 231 237 244 245 242 238 236 232 225 219 215 209 202 196 193 193 194 195 198 200 204 208 211 210 208 207 208 209 211 214 221 227 232 238 245 248 251 258 264 267 267 267 271 281 287 285 280 275 271 267 267 268 271 277 286 294 296 301
220 219 224 226 219 205 208 223 229 231 232 235 232 228 228 230 232 233 236 237 237 234 231 226 221 215 208 202 199 198 197 197 199 204 207 207 209 212 214 213 210 209 210 213 218 218 217 220 224 228 235 243 249 249 247 248 258 268 278 286 292 293 288 281 276 271 267 266 267 269 274 284 291 292
215 216 223 222 208 199 216 227 228 226 228 232 235 235 234 233 232 229 227 227 228 227 225 221 216 209 202 199 202 206 206 207 211 214 214 212 211 212 213 213 214 216 216 215 215 210 205 208 216 223 230 239 244 245 249 257 268 277 284 287 288 290 289 285 282 277 272 268 265 262 261 264 268 269
213 217 223 220 206 205 222 231 230 228 230 230 230 229 227 225 224 223 221 220 221 221 218 213 207 202 198 199 204 207 208 210 214 213 210 210 211 210 210 212 213 213 208 203 200 198 198 202 212 221 228 237 245 250 257 267 275 280 284 287 286 286 287 287 285 280 276 273 268 263 259 257 257 261
212 213 217 218 212 214 226 232 231 230 231 227 220 216 215 214 213 213 212 210 208 208 208 205 201 198 197 197 200 202 202 204 205 200 198 202 206 207 208 206 200 192 189 190 190 190 193 198 205 215 224 235 245 252 261 270 274 278 282 285 286 285 283 281 279 279 279 278 273 265 259 255 254 257